DW6440 Weather Reports


Display with metric or nautical units.
time (UTC)temp
F
wind
direction
speed
MPH
gust
MPH
rain 1hr
in
rain 24hr
in
rain mn
in
humidity
%
barometer
mb
20260901053359 71 103 0.0 0.0 0.00 0.02 0.01 93 1017.4
20260901052900 71 103 0.0 0.0 0.00 0.02 0.01 93 1017.4
20260901052419 71 103 0.0 0.0 0.00 0.02 0.01 93 1017.4
20260901051859 71 103 0.0 0.0 0.00 0.02 0.01 93 1017.5
20260901051400 71 103 0.0 0.0 0.00 0.02 0.01 93 1017.6
20260901050859 72 103 0.0 0.0 0.01 0.02 0.01 93 1017.5
20260901050359 72 103 0.0 0.0 0.01 0.02 0.01 93 1017.6
20260901045857 71 103 0.0 0.0 0.01 0.02 0.01 93 1017.6
20260901045355 71 103 0.0 0.0 0.01 0.02 0.01 93 1017.6
20260901044855 71 103 0.0 0.0 0.01 0.02 0.01 93 1017.8
20260901044353 72 103 0.0 0.0 0.01 0.02 0.01 93 1017.7
20260901043844 71 103 0.0 0.0 0.01 0.02 0.01 93 1017.7
20260901043338 71 103 0.0 0.0 0.01 0.02 0.01 93 1017.8
20260901042839 71 103 0.0 0.0 0.01 0.02 0.01 93 1017.8
20260901042821 71 103 0.0 0.0 0.01 0.02 0.01 93 1017.9
20260901041837 71 103 0.0 0.0 0.01 0.02 0.01 93 1017.9
20260901041559 71 103 0.0 0.0 0.01 0.02 0.01 93 1017.9
20260901040838 71 103 0.0 0.0 0.00 0.01 0.00 93 1018.1
20260901040337 71 103 0.0 0.0 0.00 0.01 0.00 93 1018.1
20260901035843 71 103 0.0 0.0 0.00 0.01 0.01 93 1018.1
20260901035608 71 103 0.0 0.0 0.00 0.01 0.01 93 1018.2
20260901035105 71 103 0.0 0.0 0.00 0.01 0.01 92 1018.1
20260901034335 71 103 0.0 0.0 0.00 0.01 0.01 92 1018.1
20260901033837 71 103 0.0 0.0 0.00 0.01 0.01 92 1018.1
20260901033336 71 103 0.0 0.0 0.00 0.01 0.01 93 1018.1
20260901032836 71 103 0.0 0.0 0.00 0.01 0.01 93 1018.3
20260901032335 71 103 0.0 0.0 0.00 0.01 0.01 93 1018.2
20260901031833 71 103 0.0 0.0 0.00 0.01 0.01 92 1018.2
20260901031600 71 103 0.0 0.0 0.00 0.01 0.01 92 1018.1
20260901030831 71 103 0.0 0.0 0.00 0.01 0.01 92 1018.1
20260901030327 71 103 0.0 0.0 0.00 0.01 0.01 92 1018.1
20260901025819 71 103 0.0 0.0 0.00 0.01 0.01 92 1018.1
20260901025316 71 103 0.0 0.0 0.00 0.01 0.01 92 1018.2
20260901024818 71 103 0.0 0.0 0.00 0.01 0.01 92 1018.2
20260901024542 71 103 0.0 0.0 0.00 0.01 0.01 92 1018.2
20260901023818 71 103 0.0 0.0 0.00 0.01 0.01 92 1018.2
20260901023317 71 103 0.0 0.0 0.00 0.01 0.01 92 1018.2
20260901022829 71 103 0.0 0.0 0.00 0.01 0.01 92 1018.1
20260901022317 71 103 0.0 0.0 0.00 0.01 0.01 92 1018.1
20260901022035 71 103 0.0 0.0 0.00 0.01 0.01 92 1018.1
20260901021316 71 103 0.0 0.0 0.00 0.02 0.01 92 1018.2
20260901020814 71 103 0.0 0.0 0.00 0.02 0.01 92 1018.1
20260901020314 71 103 0.0 0.0 0.00 0.02 0.01 92 1018.2
20260901015818 71 103 0.0 0.0 0.00 0.02 0.01 92 1018.2
20260901015548 71 103 0.0 0.0 0.00 0.02 0.01 92 1018.1
20260901014813 71 103 0.0 0.0 0.00 0.02 0.01 92 1018.2
20260901014533 72 103 0.0 0.0 0.00 0.02 0.01 92 1018.0
20260901013813 72 103 0.0 0.0 0.00 0.02 0.01 92 1018.0
20260901013540 72 103 0.0 1.0 0.00 0.02 0.01 92 1018.0
20260901012814 72 103 0.0 1.0 0.00 0.02 0.01 92 1018.0
20260901012315 72 103 0.0 0.0 0.00 0.02 0.01 91 1018.0
20260901011814 72 103 0.0 0.0 0.00 0.02 0.01 92 1018.0
20260901011537 72 103 0.0 0.0 0.00 0.02 0.01 91 1018.0
20260901011303 72 103 0.0 0.0 0.00 0.02 0.01 91 1018.0
20260901010328 72 103 0.0 0.0 0.00 0.02 0.01 91 1018.0
20260901005812 72 103 0.0 0.0 0.00 0.02 0.01 91 1018.1
20260901005312 73 103 0.0 0.0 0.00 0.02 0.01 91 1018.1
20260901004814 73 103 0.0 1.0 0.00 0.03 0.01 91 1018.0
20260901004312 73 103 0.0 1.0 0.00 0.05 0.01 91 1018.1
20260901004033 73 103 0.0 0.0 0.00 0.12 0.01 91 1017.9
20260901003310 73 103 0.0 0.0 0.00 0.19 0.01 90 1017.9
20260901003034 73 103 0.0 0.0 0.00 0.20 0.01 90 1017.8
20260901002309 74 103 0.0 0.0 0.00 0.21 0.01 90 1017.8
20260901001806 74 103 0.0 0.0 0.00 0.21 0.01 90 1017.8
20260901001304 74 104 0.0 0.0 0.00 0.21 0.01 89 1017.7
20260901001022 74 104 0.0 0.0 0.00 0.21 0.01 89 1017.7
20260901000303 74 104 0.0 0.0 0.00 0.21 0.01 89 1017.6
20260831235800 75 104 0.0 0.0 0.00 0.21 0.01 88 1017.6
20260831235306 75 104 0.0 0.0 0.00 0.21 0.01 88 1017.5
20260831234759 75 104 0.0 0.0 0.00 0.21 0.01 87 1017.5
20260831234731 76 104 0.0 3.0 0.00 0.21 0.01 86 1017.6
20260831234354 76 104 0.0 1.0 0.00 0.21 0.01 87 1017.6
20260831233259 76 104 0.0 3.0 0.00 0.21 0.01 86 1017.6
20260831233000 77 104 0.0 2.0 0.00 0.21 0.01 84 1017.6
20260831232851 77 104 0.0 2.0 0.00 0.21 0.01 85 1017.6
20260831231753 78 104 0.0 0.0 0.00 0.21 0.01 83 1017.7
20260831231250 78 104 0.0 1.0 0.00 0.21 0.01 82 1017.8
20260831231007 78 104 0.0 2.0 0.00 0.21 0.01 81 1017.9
20260831230245 78 104 1.0 3.0 0.00 0.21 0.01 81 1017.8
20260831225955 78 104 0.0 3.0 0.00 0.21 0.01 80 1017.9
20260831225839 78 104 1.0 3.0 0.00 0.21 0.01 82 1017.8
20260831225005 78 104 1.0 2.0 0.00 0.21 0.01 81 1018.0
20260831224244 79 104 1.0 4.0 0.00 0.21 0.01 80 1018.0
20260831224005 79 104 1.0 4.0 0.00 0.21 0.01 79 1018.0
20260831223516 79 103 1.0 4.0 0.00 0.21 0.01 79 1018.1
20260831222746 79 99 1.0 4.0 0.00 0.21 0.01 78 1018.2
20260831222244 80 99 1.0 3.0 0.00 0.21 0.01 78 1018.2
20260831221744 80 99 1.0 3.0 0.00 0.21 0.01 78 1018.2
20260831221240 80 99 1.0 3.0 0.00 0.21 0.01 77 1018.2
20260831220732 80 99 1.0 3.0 0.00 0.21 0.01 79 1018.3
20260831220235 79 99 1.0 3.0 0.00 0.21 0.01 78 1018.2
20260831215732 79 99 1.0 4.0 0.00 0.21 0.01 78 1018.2
20260831215233 79 99 1.0 4.0 0.00 0.21 0.01 78 1018.2
20260831214730 80 98 1.0 3.0 0.00 0.21 0.01 78 1018.3
20260831214231 79 98 1.0 3.0 0.00 0.21 0.01 78 1018.2
20260831213732 79 98 1.0 4.0 0.00 0.21 0.01 77 1018.2
20260831213230 79 98 1.0 4.0 0.00 0.21 0.01 77 1018.3
20260831212727 80 98 1.0 4.0 0.00 0.21 0.01 77 1018.4
20260831212227 80 98 1.0 4.0 0.00 0.21 0.01 76 1018.4
20260831211728 80 98 0.0 0.0 0.00 0.21 0.01 77 1018.4
20260831211714 80 98 0.0 0.0 0.00 0.21 0.01 77 1018.5
20260831210726 79 98 0.0 0.0 0.00 0.21 0.01 76 1018.5
20260831210226 79 98 0.0 0.0 0.00 0.21 0.01 76 1018.5
20260831205724 80 98 0.0 0.0 0.00 0.21 0.01 75 1018.6
20260831205224 80 98 0.0 0.0 0.00 0.21 0.01 77 1018.6
20260831204724 80 98 0.0 0.0 0.00 0.21 0.01 74 1018.6
20260831204222 80 98 0.0 0.0 0.00 0.21 0.01 77 1018.6
20260831203724 80 98 0.0 0.0 0.00 0.21 0.01 75 1018.6
20260831203222 80 98 0.0 0.0 0.00 0.21 0.01 76 1018.6
20260831202721 80 98 0.0 0.0 0.00 0.21 0.01 74 1018.7
20260831202222 80 98 0.0 2.0 0.00 0.21 0.01 73 1018.7
20260831202210 80 97 1.0 3.0 0.00 0.21 0.01 74 1018.7
20260831201440 80 97 2.0 4.0 0.00 0.21 0.01 74 1018.8
20260831200718 80 97 2.0 4.0 0.00 0.21 0.01 76 1018.9
20260831200217 81 97 2.0 3.0 0.00 0.21 0.01 71 1019.0
20260831195717 81 97 1.0 3.0 0.00 0.21 0.01 74 1019.0
20260831195217 80 96 1.0 3.0 0.00 0.21 0.01 73 1019.0
20260831194731 80 96 1.0 3.0 0.00 0.21 0.01 73 1019.0
20260831194216 80 96 1.0 3.0 0.00 0.21 0.01 73 1019.1
20260831193713 80 96 1.0 3.0 0.00 0.21 0.01 75 1019.1
20260831193213 80 96 1.0 4.0 0.00 0.21 0.01 73 1019.1
20260831192726 80 96 1.0 4.0 0.00 0.21 0.01 74 1019.1
20260831192212 80 96 1.0 3.0 0.00 0.21 0.01 74 1019.2
20260831191712 80 95 1.0 3.0 0.00 0.21 0.01 72 1019.2
20260831191443 80 94 1.0 3.0 0.00 0.21 0.01 74 1019.3
20260831190727 80 95 1.0 2.0 0.00 0.21 0.01 75 1019.4
20260831190212 80 94 1.0 6.0 0.00 0.21 0.01 73 1019.5
20260831185715 80 95 1.0 6.0 0.00 0.21 0.01 73 1019.6
20260831185429 80 88 1.0 4.0 0.00 0.21 0.01 75 1019.6
20260831184709 80 88 1.0 4.0 0.00 0.21 0.01 73 1019.5
20260831184428 79 139 1.0 5.0 0.00 0.21 0.01 74 1019.6
20260831183711 80 139 1.0 5.0 0.00 0.21 0.01 74 1019.5
20260831183209 79 141 1.0 3.0 0.00 0.21 0.01 71 1019.5
20260831182710 80 142 1.0 3.0 0.00 0.21 0.01 73 1019.5
20260831182210 80 142 1.0 3.0 0.00 0.21 0.01 72 1019.6
20260831181712 79 142 1.0 3.0 0.00 0.21 0.01 74 1019.6
20260831181209 80 143 1.0 3.0 0.00 0.21 0.01 74 1019.6
20260831180710 80 144 1.0 3.0 0.00 0.21 0.01 72 1019.5
20260831180703 79 144 2.0 4.0 0.00 0.21 0.01 71 1019.5
20260831175710 80 144 2.0 5.0 0.00 0.21 0.01 72 1019.6
20260831175210 80 144 2.0 5.0 0.00 0.21 0.01 73 1019.7
20260831174710 80 165 2.0 5.0 0.00 0.21 0.01 73 1019.7
20260831174433 79 161 1.0 4.0 0.00 0.21 0.01 76 1019.8
20260831173710 79 161 1.0 4.0 0.00 0.21 0.01 75 1019.9
20260831173210 79 161 1.0 4.0 0.00 0.21 0.01 76 1019.9
20260831172707 78 161 0.0 2.0 0.00 0.21 0.01 77 1019.9
20260831172206 78 161 1.0 2.0 0.00 0.21 0.01 76 1019.9
20260831171705 78 161 2.0 6.0 0.00 0.21 0.01 77 1019.8
20260831171437 78 161 3.0 6.0 0.00 0.21 0.01 77 1019.9
20260831170707 78 161 2.0 6.0 0.00 0.21 0.01 75 1019.9
20260831170205 78 140 2.0 4.0 0.00 0.21 0.01 74 1019.9
20260831170148 78 122 2.0 4.0 0.00 0.21 0.01 74 1019.9
20260831165204 79 119 1.0 3.0 0.00 0.21 0.01 76 1019.9
20260831164702 78 119 1.0 3.0 0.00 0.21 0.01 73 1020.0
20260831164202 78 119 1.0 3.0 0.00 0.21 0.01 76 1019.9
20260831163917 78 120 1.0 3.0 0.00 0.21 0.01 76 1019.9
20260831163158 78 119 1.0 3.0 0.00 0.21 0.01 77 1019.9
20260831162701 78 119 1.0 3.0 0.00 0.21 0.01 77 1019.9
20260831162158 77 119 1.0 3.0 0.00 0.21 0.01 74 1020.0
20260831161700 78 118 0.0 3.0 0.00 0.21 0.01 73 1020.0
20260831161157 78 119 0.0 2.0 0.00 0.21 0.01 75 1020.0
20260831160655 77 119 0.0 3.0 0.00 0.21 0.01 76 1019.9
20260831160421 77 118 1.0 4.0 0.00 0.21 0.01 77 1020.0
20260831155653 77 121 1.0 4.0 0.00 0.21 0.01 75 1019.9
20260831155150 78 123 1.0 4.0 0.00 0.21 0.01 77 1019.9
20260831154649 78 123 1.0 3.0 0.00 0.21 0.01 76 1019.9
20260831154147 78 123 1.0 4.0 0.00 0.21 0.01 77 1019.9
20260831153648 78 123 2.0 4.0 0.00 0.21 0.01 78 1019.9
20260831153407 78 93 1.0 4.0 0.00 0.21 0.01 76 1020.0
20260831152644 78 91 1.0 4.0 0.00 0.21 0.01 78 1020.1
20260831152147 77 91 1.0 3.0 0.00 0.21 0.01 76 1020.1
20260831151642 78 90 1.0 3.0 0.00 0.21 0.01 78 1020.1
20260831151405 76 91 1.0 7.0 0.00 0.21 0.01 76 1020.2
20260831150639 76 91 2.0 7.0 0.00 0.21 0.01 78 1020.1
20260831150142 76 74 1.0 4.0 0.00 0.21 0.01 79 1020.2
20260831145638 76 71 1.0 4.0 0.00 0.21 0.01 83 1020.3
20260831145135 76 72 0.0 4.0 0.00 0.21 0.01 81 1020.3
20260831144638 76 72 0.0 1.0 0.00 0.21 0.01 84 1020.3
20260831144136 75 72 0.0 1.0 0.00 0.21 0.01 83 1020.4
20260831143912 75 72 0.0 1.0 0.00 0.21 0.01 85 1020.3
20260831143357 75 72 0.0 2.0 0.00 0.21 0.01 85 1020.4
20260831142635 74 72 0.0 3.0 0.00 0.21 0.01 84 1020.5
20260831142136 74 72 0.0 3.0 0.00 0.21 0.01 87 1020.4
20260831141633 73 72 0.0 3.0 0.00 0.21 0.01 86 1020.4
20260831141136 73 72 0.0 2.0 0.00 0.21 0.01 86 1020.4
20260831140631 73 72 0.0 2.0 0.00 0.21 0.01 88 1020.4
20260831140406 73 72 0.0 3.0 0.00 0.21 0.01 87 1020.4
20260831135858 73 72 0.0 4.0 0.00 0.21 0.01 87 1020.3
20260831135130 73 72 1.0 4.0 0.00 0.21 0.01 87 1020.3
20260831134627 73 72 1.0 4.0 0.00 0.21 0.01 88 1020.4
20260831134129 73 72 1.0 4.0 0.00 0.21 0.01 89 1020.3
20260831133629 73 55 1.0 3.0 0.00 0.21 0.01 89 1020.3
20260831133130 73 55 1.0 4.0 0.00 0.21 0.01 91 1020.2
20260831132627 73 55 1.0 4.0 0.00 0.21 0.01 91 1020.1
20260831132355 72 55 0.0 2.0 0.00 0.21 0.01 92 1020.2
20260831131629 72 55 0.0 2.0 0.00 0.21 0.01 92 1020.1
20260831131129 72 55 0.0 2.0 0.00 0.21 0.01 93 1020.1
20260831130625 72 54 0.0 2.0 0.00 0.21 0.01 93 1020.2
20260831130345 71 54 1.0 3.0 0.00 0.21 0.01 93 1020.1
20260831125624 71 54 1.0 3.0 0.00 0.21 0.01 93 1020.1
20260831125605 71 54 0.0 3.0 0.00 0.21 0.01 93 1020.2
20260831124852 71 54 0.0 1.0 0.00 0.21 0.01 93 1020.2
20260831124345 71 54 0.0 1.0 0.00 0.21 0.01 93 1020.2
20260831123620 71 54 0.0 0.0 0.00 0.21 0.01 93 1020.2
20260831123115 71 54 0.0 1.0 0.00 0.21 0.01 94 1020.2
20260831122616 71 54 0.0 2.0 0.00 0.21 0.01 94 1020.2
20260831122115 71 54 0.0 2.0 0.00 0.21 0.01 94 1020.1
20260831121614 71 54 0.0 3.0 0.00 0.21 0.01 94 1020.1
20260831121115 71 54 0.0 3.0 0.00 0.21 0.01 94 1020.0
20260831120611 70 53 0.0 1.0 0.00 0.21 0.01 94 1020.1
20260831120120 70 53 0.0 1.0 0.00 0.21 0.01 94 1020.0
20260831115609 70 53 0.0 1.0 0.00 0.21 0.01 94 1020.0
20260831115108 70 53 0.0 1.0 0.00 0.21 0.01 94 1020.0
20260831114608 70 53 0.0 0.0 0.00 0.21 0.01 94 1020.0
20260831114107 70 53 0.0 1.0 0.00 0.21 0.01 94 1020.0
20260831113605 70 53 0.0 1.0 0.00 0.21 0.01 94 1019.9
20260831113108 70 53 0.0 1.0 0.00 0.21 0.01 94 1019.8
20260831112606 70 53 0.0 1.0 0.00 0.21 0.01 94 1019.7
20260831112103 70 53 0.0 1.0 0.00 0.21 0.01 94 1019.7
20260831111604 70 53 0.0 0.0 0.00 0.21 0.01 94 1019.8
20260831111104 69 53 0.0 0.0 0.00 0.21 0.01 94 1019.6
20260831110602 69 53 0.0 0.0 0.00 0.21 0.01 94 1019.6
20260831110334 69 53 0.0 1.0 0.00 0.21 0.01 94 1019.6
20260831105821 69 53 0.0 1.0 0.00 0.21 0.01 94 1019.5
20260831105058 69 53 0.0 0.0 0.00 0.21 0.01 94 1019.3
20260831104556 69 53 0.0 0.0 0.00 0.21 0.01 94 1019.4
20260831104055 69 53 0.0 0.0 0.00 0.21 0.01 94 1019.4
20260831103557 69 53 0.0 0.0 0.00 0.21 0.01 94 1019.4
20260831103055 69 53 0.0 0.0 0.00 0.21 0.01 94 1019.4
20260831102817 69 53 0.0 0.0 0.00 0.21 0.01 94 1019.4
20260831102051 69 53 0.0 0.0 0.00 0.21 0.01 94 1019.3
20260831101816 69 53 0.0 0.0 0.00 0.21 0.01 94 1019.4
20260831101049 69 53 0.0 0.0 0.00 0.21 0.01 94 1019.3
20260831100550 70 53 0.0 0.0 0.00 0.21 0.01 94 1019.2
20260831100100 69 53 0.0 0.0 0.01 0.21 0.01 94 1019.2
20260831095810 69 53 0.0 1.0 0.01 0.21 0.01 94 1019.2
20260831095047 69 53 0.0 1.0 0.01 0.21 0.01 94 1019.1
20260831094545 69 53 0.0 1.0 0.01 0.21 0.01 94 1019.0
20260831094045 69 53 0.0 0.0 0.01 0.21 0.01 94 1018.8
20260831093545 69 53 0.0 2.0 0.01 0.21 0.01 94 1018.7
20260831093043 69 53 0.0 2.0 0.01 0.21 0.01 94 1018.7
20260831092543 70 53 0.0 1.0 0.01 0.21 0.01 94 1018.7
20260831092041 70 53 0.0 0.0 0.01 0.21 0.01 94 1018.6
20260831091540 70 53 0.0 0.0 0.01 0.21 0.01 94 1018.5
20260831091052 70 53 0.0 0.0 0.01 0.21 0.01 94 1018.5
20260831090541 70 53 0.0 0.0 0.01 0.21 0.01 94 1018.7
20260831090052 70 53 0.0 0.0 0.00 0.20 0.00 94 1018.5
20260831085538 70 53 0.0 0.0 0.00 0.20 0.00 94 1018.6
20260831085307 70 53 0.0 0.0 0.00 0.20 0.00 94 1018.6
20260831084540 70 53 0.0 0.0 0.00 0.20 0.00 94 1018.6
20260831084037 70 53 0.0 0.0 0.00 0.20 0.00 94 1018.6
20260831083538 70 53 0.0 1.0 0.00 0.20 0.00 94 1018.5
20260831083034 71 53 0.0 2.0 0.00 0.20 0.00 94 1018.4
20260831082533 71 53 1.0 3.0 0.00 0.20 0.00 94 1018.5
20260831082511 71 53 1.0 3.0 0.00 0.20 0.00 94 1018.4
20260831081542 71 53 0.0 2.0 0.00 0.20 0.00 94 1018.4
20260831081029 71 53 0.0 1.0 0.00 0.20 0.00 94 1018.3
20260831080526 71 53 0.0 2.0 0.00 0.20 0.00 94 1018.3
20260831080024 71 53 0.0 2.0 0.00 0.20 0.00 94 1018.3
20260831075527 71 53 0.0 1.0 0.00 0.20 0.00 94 1018.5
20260831075021 71 53 0.0 2.0 0.00 0.20 0.00 94 1018.6
20260831074522 71 53 0.0 2.0 0.00 0.20 0.00 94 1018.5
20260831074247 71 53 0.0 4.0 0.00 0.20 0.00 94 1018.4
20260831073522 71 53 1.0 4.0 0.00 0.20 0.00 94 1018.4
20260831073021 71 355 0.0 3.0 0.00 0.20 0.00 94 1018.4
20260831072523 71 349 0.0 2.0 0.00 0.20 0.00 94 1018.3
20260831072025 71 349 0.0 0.0 0.00 0.20 0.00 94 1018.3
20260831071522 71 349 0.0 0.0 0.00 0.20 0.00 94 1018.4
20260831071023 71 349 0.0 1.0 0.00 0.20 0.00 94 1018.5
20260831070522 71 349 0.0 1.0 0.00 0.20 0.00 94 1018.5
20260831070023 71 349 0.0 1.0 0.00 0.20 0.00 94 1018.6
20260831065520 71 349 0.0 2.0 0.00 0.20 0.00 94 1018.7
20260831065019 71 349 0.0 2.0 0.00 0.20 0.00 94 1018.6
20260831064744 71 349 0.0 2.0 0.00 0.20 0.00 94 1018.7
20260831064018 71 349 0.0 2.0 0.00 0.20 0.00 94 1018.7
20260831063517 71 349 0.0 2.0 0.00 0.20 0.00 94 1018.8
20260831063017 71 349 1.0 3.0 0.00 0.20 0.00 94 1018.6
20260831062516 71 349 0.0 3.0 0.00 0.20 0.00 94 1018.8
20260831062020 71 348 0.0 2.0 0.00 0.20 0.00 94 1018.9
20260831061518 71 348 0.0 1.0 0.00 0.20 0.00 94 1019.0
20260831061020 71 348 1.0 3.0 0.00 0.20 0.00 94 1019.0
20260831060519 71 348 1.0 3.0 0.00 0.20 0.00 94 1019.0
20260831060018 71 355 0.0 0.0 0.00 0.20 0.00 94 1019.0
20260831055527 71 355 0.0 0.0 0.00 0.20 0.00 94 1019.0
20260831055014 71 355 0.0 0.0 0.00 0.20 0.00 94 1019.0
20260831054516 71 355 0.0 0.0 0.00 0.20 0.00 93 1019.0
20260831054013 71 355 0.0 0.0 0.00 0.20 0.00 93 1019.0
20260831053513 71 355 0.0 0.0 0.00 0.20 0.00 93 1019.1